Time,TemperatureF,DewpointF,PressureIn,WindDirection,WindDirectionDegrees,WindSpeedMPH,WindSpeedGustMPH,Humidity,HourlyPrecipIn,Conditions,Clouds,dailyrainin,SoftwareType,DateUTC
2013-05-09 00:03:00,56.0,50.0,29.96,West,279,0.0,1.0,81,0.00,,,0.00,,2013-05-09 04:03:00,
2013-05-09 00:13:00,56.0,50.0,29.96,West,279,0.0,1.0,81,0.00,,,0.00,,2013-05-09 04:13:00,
2013-05-09 00:23:00,56.0,51.0,29.96,West,278,0.0,0.0,83,0.00,,,0.00,,2013-05-09 04:23:00,
2013-05-09 00:33:00,56.0,51.0,29.96,West,278,0.0,1.0,82,0.00,,,0.00,,2013-05-09 04:33:00,
2013-05-09 00:43:00,56.0,51.0,29.96,West,278,0.0,1.0,82,0.00,,,0.00,,2013-05-09 04:43:00,
2013-05-09 00:53:00,55.0,50.0,29.96,West,278,0.0,0.0,84,0.00,,,0.00,,2013-05-09 04:53:00,
2013-05-09 01:02:00,55.0,52.0,29.96,West,278,0.0,0.0,88,0.00,,,0.00,,2013-05-09 05:02:00,
2013-05-09 01:12:00,55.0,52.0,29.96,West,278,0.0,0.0,88,0.00,,,0.00,,2013-05-09 05:12:00,
2013-05-09 01:22:00,54.0,51.0,29.95,West,278,0.0,0.0,90,0.00,,,0.00,,2013-05-09 05:22:00,
2013-05-09 01:32:00,54.0,51.0,29.95,West,278,0.0,0.0,90,0.00,,,0.00,,2013-05-09 05:32:00,
2013-05-09 01:42:00,54.0,51.0,29.95,West,278,0.0,0.0,90,0.00,,,0.00,,2013-05-09 05:42:00,
2013-05-09 01:52:00,53.0,50.0,29.95,West,278,0.0,0.0,91,0.00,,,0.00,,2013-05-09 05:52:00,
2013-05-09 02:02:00,53.0,50.0,29.95,West,278,0.0,1.0,91,0.00,,,0.00,,2013-05-09 06:02:00,
2013-05-09 02:12:00,53.0,50.0,29.95,West,278,0.0,1.0,91,0.00,,,0.00,,2013-05-09 06:12:00,
2013-05-09 02:22:00,52.0,50.0,29.95,East,89,1.0,1.0,92,0.00,,,0.00,,2013-05-09 06:22:00,
2013-05-09 02:32:00,52.0,50.0,29.94,East,89,0.0,0.0,92,0.00,,,0.00,,2013-05-09 06:32:00,
2013-05-09 02:42:00,52.0,50.0,29.94,East,89,0.0,0.0,92,0.00,,,0.00,,2013-05-09 06:42:00,
2013-05-09 02:52:00,52.0,50.0,29.94,ESE,105,0.0,0.0,93,0.00,,,0.00,,2013-05-09 06:52:00,
2013-05-09 03:01:00,52.0,50.0,29.93,SE,129,0.0,1.0,93,0.00,,,0.00,,2013-05-09 07:01:00,
2013-05-09 03:12:00,52.0,50.0,29.93,SE,129,0.0,1.0,93,0.00,,,0.00,,2013-05-09 07:12:00,
2013-05-09 03:22:00,51.0,49.0,29.94,SW,233,0.0,1.0,94,0.00,,,0.00,,2013-05-09 07:22:00,
2013-05-09 03:32:00,51.0,50.0,29.93,SW,233,0.0,1.0,95,0.00,,,0.00,,2013-05-09 07:32:00,
2013-05-09 03:42:00,51.0,50.0,29.93,SW,233,0.0,1.0,95,0.00,,,0.00,,2013-05-09 07:42:00,
2013-05-09 03:52:00,51.0,50.0,29.93,SW,234,0.0,1.0,95,0.00,,,0.00,,2013-05-09 07:52:00,
2013-05-09 04:02:00,50.0,49.0,29.93,SSE,150,0.0,1.0,95,0.00,,,0.00,,2013-05-09 08:02:00,
2013-05-09 04:11:00,50.0,49.0,29.93,SSE,150,0.0,1.0,95,0.00,,,0.00,,2013-05-09 08:11:00,
2013-05-09 04:22:00,51.0,50.0,29.94,West,273,0.0,3.0,96,0.00,,,0.00,,2013-05-09 08:22:00,
2013-05-09 04:32:00,50.0,48.0,29.95,West,274,0.0,1.0,94,0.00,,,0.00,,2013-05-09 08:32:00,
2013-05-09 04:42:00,50.0,48.0,29.95,West,274,0.0,1.0,94,0.00,,,0.00,,2013-05-09 08:42:00,
2013-05-09 04:52:00,49.0,48.0,29.95,West,274,0.0,0.0,96,0.00,,,0.00,,2013-05-09 08:52:00,
2013-05-09 05:02:00,50.0,49.0,29.95,West,274,0.0,0.0,96,0.00,,,0.00,,2013-05-09 09:02:00,
2013-05-09 05:11:00,50.0,49.0,29.95,West,274,0.0,0.0,96,0.00,,,0.00,,2013-05-09 09:11:00,
2013-05-09 05:21:00,49.0,48.0,29.95,West,274,0.0,1.0,96,0.00,,,0.00,,2013-05-09 09:21:00,
2013-05-09 05:32:00,49.0,48.0,29.95,West,274,0.0,0.0,97,0.00,,,0.00,,2013-05-09 09:32:00,
2013-05-09 05:43:00,49.0,48.0,29.95,West,274,0.0,0.0,97,0.00,,,0.00,,2013-05-09 09:43:00,
2013-05-09 05:53:00,49.0,48.0,29.95,West,274,0.0,0.0,97,0.00,,,0.00,,2013-05-09 09:53:00,
2013-05-09 06:02:00,49.0,48.0,29.94,West,274,0.0,0.0,97,0.00,,,0.00,,2013-05-09 10:02:00,
2013-05-09 06:12:00,49.0,48.0,29.94,West,274,0.0,0.0,97,0.00,,,0.00,,2013-05-09 10:12:00,
2013-05-09 06:23:00,48.0,47.0,29.94,West,274,0.0,0.0,97,0.00,,,0.00,,2013-05-09 10:23:00,
2013-05-09 06:33:00,48.0,47.0,29.94,West,274,0.0,0.0,97,0.00,,,0.00,,2013-05-09 10:33:00,
2013-05-09 06:42:00,48.0,47.0,29.94,West,274,0.0,0.0,97,0.00,,,0.00,,2013-05-09 10:42:00,
2013-05-09 06:53:00,48.0,47.0,29.94,SSE,150,1.0,2.0,97,0.00,,,0.00,,2013-05-09 10:53:00,
2013-05-09 07:02:00,48.0,47.0,29.95,SSE,147,1.0,2.0,98,0.00,,,0.00,,2013-05-09 11:02:00,
2013-05-09 07:12:00,48.0,47.0,29.95,SSE,147,1.0,2.0,98,0.00,,,0.00,,2013-05-09 11:12:00,
2013-05-09 07:22:00,48.0,47.0,29.95,SE,129,1.0,1.0,97,0.00,,,0.00,,2013-05-09 11:22:00,
2013-05-09 07:32:00,49.0,48.0,29.96,ESE,109,0.0,1.0,96,0.00,,,0.00,,2013-05-09 11:32:00,
2013-05-09 07:42:00,49.0,48.0,29.96,ESE,109,0.0,1.0,96,0.00,,,0.00,,2013-05-09 11:42:00,
2013-05-09 07:52:00,52.0,51.0,29.96,ESE,115,0.0,0.0,95,0.00,,,0.00,,2013-05-09 11:52:00,
2013-05-09 08:01:00,54.0,53.0,29.96,ESE,116,0.0,0.0,95,0.00,,,0.00,,2013-05-09 12:01:00,
2013-05-09 08:11:00,54.0,53.0,29.96,ESE,116,0.0,0.0,95,0.00,,,0.00,,2013-05-09 12:11:00,
2013-05-09 08:22:00,56.0,52.0,29.96,ESE,115,0.0,1.0,85,0.00,,,0.00,,2013-05-09 12:22:00,
2013-05-09 08:32:00,58.0,53.0,29.96,ESE,116,0.0,1.0,82,0.00,,,0.00,,2013-05-09 12:32:00,
2013-05-09 08:42:00,58.0,53.0,29.96,ESE,116,0.0,1.0,82,0.00,,,0.00,,2013-05-09 12:42:00,
2013-05-09 08:52:00,60.0,52.0,29.96,ESE,105,0.0,1.0,76,0.00,,,0.00,,2013-05-09 12:52:00,
2013-05-09 09:01:00,63.0,51.0,29.96,East,86,0.0,1.0,64,0.00,,,0.00,,2013-05-09 13:01:00,
2013-05-09 09:12:00,63.0,51.0,29.96,East,86,0.0,1.0,64,0.00,,,0.00,,2013-05-09 13:12:00,
2013-05-09 09:22:00,65.0,50.0,29.97,NNE,20,0.0,1.0,58,0.00,,,0.00,,2013-05-09 13:22:00,
2013-05-09 09:32:00,65.0,50.0,29.97,NNW,329,1.0,2.0,59,0.00,,,0.00,,2013-05-09 13:32:00,
2013-05-09 09:42:00,65.0,50.0,29.97,NNW,329,1.0,2.0,59,0.00,,,0.00,,2013-05-09 13:42:00,
2013-05-09 09:52:00,66.0,50.0,29.96,North,1,0.0,2.0,57,0.00,,,0.00,,2013-05-09 13:52:00,
2013-05-09 10:02:00,68.0,51.0,29.96,ENE,64,0.0,1.0,55,0.00,,,0.00,,2013-05-09 14:02:00,
2013-05-09 10:11:00,68.0,51.0,29.96,ENE,64,0.0,1.0,55,0.00,,,0.00,,2013-05-09 14:11:00,
2013-05-09 10:22:00,69.0,51.0,29.96,East,95,1.0,2.0,53,0.00,,,0.00,,2013-05-09 14:22:00,
2013-05-09 10:32:00,70.0,50.0,29.96,NE,41,0.0,2.0,49,0.00,,,0.00,,2013-05-09 14:32:00,
2013-05-09 10:42:00,70.0,50.0,29.96,NE,41,0.0,2.0,49,0.00,,,0.00,,2013-05-09 14:42:00,
2013-05-09 10:52:00,72.0,52.0,29.96,WNW,288,0.0,3.0,49,0.00,,,0.00,,2013-05-09 14:52:00,
2013-05-09 11:02:00,72.0,51.0,29.96,NW,326,2.0,3.0,47,0.00,,,0.00,,2013-05-09 15:02:00,
2013-05-09 11:11:00,72.0,51.0,29.96,NW,326,2.0,3.0,47,0.00,,,0.00,,2013-05-09 15:11:00,
2013-05-09 11:22:00,73.0,52.0,29.96,West,273,2.0,3.0,47,0.00,,,0.00,,2013-05-09 15:22:00,
2013-05-09 11:33:00,72.0,49.0,29.96,WNW,295,3.0,8.0,45,0.00,,,0.00,,2013-05-09 15:33:00,
2013-05-09 11:43:00,72.0,49.0,29.96,WNW,295,3.0,8.0,45,0.00,,,0.00,,2013-05-09 15:43:00,
2013-05-09 11:53:00,73.0,52.0,29.97,WNW,290,4.0,7.0,48,0.00,,,0.00,,2013-05-09 15:53:00,
2013-05-09 12:03:00,73.0,51.0,29.96,NNW,329,1.0,8.0,46,0.00,,,0.00,,2013-05-09 16:03:00,
2013-05-09 12:12:00,73.0,51.0,29.96,NNW,329,1.0,8.0,46,0.00,,,0.00,,2013-05-09 16:12:00,
2013-05-09 12:23:00,73.0,48.0,29.96,SSE,153,2.0,4.0,41,0.00,,,0.00,,2013-05-09 16:23:00,
2013-05-09 12:33:00,74.0,46.0,29.96,ENE,74,2.0,3.0,37,0.00,,,0.00,,2013-05-09 16:33:00,
2013-05-09 12:42:00,74.0,46.0,29.96,ENE,74,2.0,3.0,37,0.00,,,0.00,,2013-05-09 16:42:00,
2013-05-09 12:53:00,75.0,45.0,29.96,SE,124,0.0,4.0,35,0.00,,,0.00,,2013-05-09 16:53:00,
2013-05-09 13:02:00,75.0,45.0,29.96,NE,56,3.0,4.0,35,0.00,,,0.00,,2013-05-09 17:02:00,
2013-05-09 13:12:00,75.0,45.0,29.96,NE,56,3.0,4.0,35,0.00,,,0.00,,2013-05-09 17:12:00,
2013-05-09 13:22:00,76.0,48.0,29.96,East,101,3.0,5.0,37,0.00,,,0.00,,2013-05-09 17:22:00,
2013-05-09 13:32:00,76.0,49.0,29.95,ESE,123,2.0,6.0,38,0.00,,,0.00,,2013-05-09 17:32:00,
2013-05-09 13:42:00,76.0,49.0,29.95,ESE,123,2.0,6.0,38,0.00,,,0.00,,2013-05-09 17:42:00,
2013-05-09 13:55:00,78.0,49.0,29.95,WSW,253,1.0,3.0,36,0.00,,,0.00,,2013-05-09 17:55:00,
2013-05-09 14:01:00,79.0,48.0,29.94,West,260,1.0,8.0,34,0.00,,,0.00,,2013-05-09 18:01:00,
2013-05-09 14:12:00,79.0,48.0,29.94,West,260,1.0,8.0,34,0.00,,,0.00,,2013-05-09 18:12:00,
2013-05-09 14:22:00,79.0,47.0,29.93,SW,228,2.0,8.0,32,0.00,,,0.00,,2013-05-09 18:22:00,
2013-05-09 14:32:00,78.0,50.0,29.93,WSW,257,3.0,10.0,37,0.00,,,0.00,,2013-05-09 18:32:00,
2013-05-09 14:42:00,78.0,50.0,29.93,WSW,257,3.0,10.0,37,0.00,,,0.00,,2013-05-09 18:42:00,
2013-05-09 14:52:00,79.0,47.0,29.93,West,281,2.0,6.0,33,0.00,,,0.00,,2013-05-09 18:52:00,
2013-05-09 15:01:00,79.0,46.0,29.92,SSE,165,4.0,7.0,31,0.00,,,0.00,,2013-05-09 19:01:00,
2013-05-09 15:12:00,79.0,46.0,29.92,SSE,165,4.0,7.0,31,0.00,,,0.00,,2013-05-09 19:12:00,
2013-05-09 15:21:00,79.0,44.0,29.91,SE,146,1.0,6.0,29,0.00,,,0.00,,2013-05-09 19:21:00,
2013-05-09 15:32:00,79.0,48.0,29.91,SSE,162,2.0,6.0,34,0.00,,,0.00,,2013-05-09 19:32:00,
2013-05-09 15:42:00,79.0,48.0,29.91,SSE,162,2.0,6.0,34,0.00,,,0.00,,2013-05-09 19:42:00,
2013-05-09 15:52:00,80.0,48.0,29.91,South,183,1.0,4.0,33,0.00,,,0.00,,2013-05-09 19:52:00,
2013-05-09 16:01:00,79.0,47.0,29.90,ESE,108,2.0,4.0,33,0.00,,,0.00,,2013-05-09 20:01:00,
2013-05-09 16:11:00,79.0,47.0,29.90,ESE,108,2.0,4.0,33,0.00,,,0.00,,2013-05-09 20:11:00,
2013-05-09 16:22:00,79.0,47.0,29.89,WSW,238,1.0,5.0,32,0.00,,,0.00,,2013-05-09 20:22:00,
2013-05-09 16:32:00,80.0,47.0,29.88,SSE,164,2.0,6.0,31,0.00,,,0.00,,2013-05-09 20:32:00,
2013-05-09 16:42:00,79.0,47.0,29.88,ESE,107,1.0,4.0,33,0.00,,,0.00,,2013-05-09 20:42:00,
2013-05-09 16:52:00,79.0,47.0,29.88,ESE,107,1.0,4.0,33,0.00,,,0.00,,2013-05-09 20:52:00,
2013-05-09 17:02:00,79.0,47.0,29.88,SSW,194,2.0,5.0,33,0.00,,,0.00,,2013-05-09 21:02:00,
2013-05-09 17:12:00,79.0,47.0,29.88,SSW,194,2.0,5.0,33,0.00,,,0.00,,2013-05-09 21:12:00,
2013-05-09 17:22:00,78.0,46.0,29.87,SE,145,3.0,5.0,32,0.00,,,0.00,,2013-05-09 21:22:00,
2013-05-09 17:32:00,77.0,47.0,29.87,SW,226,1.0,4.0,35,0.00,,,0.00,,2013-05-09 21:32:00,
2013-05-09 17:43:00,76.0,47.0,29.87,SW,233,0.0,2.0,36,0.00,,,0.00,,2013-05-09 21:43:00,
2013-05-09 17:53:00,76.0,47.0,29.87,SW,233,0.0,2.0,36,0.00,,,0.00,,2013-05-09 21:53:00,
2013-05-09 18:03:00,75.0,50.0,29.88,WSW,250,5.0,14.0,42,0.00,,,0.00,,2013-05-09 22:03:00,
2013-05-09 18:13:00,75.0,50.0,29.88,WSW,250,5.0,14.0,42,0.00,,,0.00,,2013-05-09 22:13:00,
2013-05-09 18:23:00,74.0,51.0,29.88,SSE,166,0.0,5.0,44,0.00,,,0.00,,2013-05-09 22:23:00,
2013-05-09 18:33:00,67.0,58.0,29.91,SSW,212,4.0,20.0,73,0.00,,,0.00,,2013-05-09 22:33:00,
2013-05-09 18:42:00,64.0,58.0,29.91,SW,226,2.0,15.0,82,0.01,,,0.01,,2013-05-09 22:42:00,
2013-05-09 18:52:00,64.0,58.0,29.91,SW,226,2.0,15.0,82,0.01,,,0.01,,2013-05-09 22:52:00,
2013-05-09 19:02:00,63.0,59.0,29.91,WSW,240,3.0,9.0,86,0.02,,,0.02,,2013-05-09 23:02:00,
2013-05-09 19:12:00,63.0,59.0,29.91,WSW,240,3.0,9.0,86,0.02,,,0.02,,2013-05-09 23:12:00,
2013-05-09 19:22:00,62.0,58.0,29.91,WNW,298,2.0,5.0,88,0.03,,,0.03,,2013-05-09 23:22:00,
2013-05-09 19:32:00,62.0,58.0,29.90,WNW,295,3.0,4.0,88,0.03,,,0.03,,2013-05-09 23:32:00,
2013-05-09 19:42:00,62.0,58.0,29.90,WNW,295,3.0,4.0,88,0.03,,,0.03,,2013-05-09 23:42:00,
2013-05-09 19:52:00,62.0,59.0,29.90,NNW,333,2.0,3.0,89,0.02,,,0.03,,2013-05-09 23:52:00,
2013-05-09 20:01:00,62.0,59.0,29.89,ENE,57,1.0,2.0,89,0.01,,,0.03,,2013-05-10 00:01:00,
2013-05-09 20:11:00,62.0,59.0,29.89,ENE,57,1.0,2.0,89,0.01,,,0.03,,2013-05-10 00:11:00,
2013-05-09 20:22:00,62.0,59.0,29.89,ESE,102,2.0,3.0,90,0.00,,,0.03,,2013-05-10 00:22:00,
2013-05-09 20:32:00,62.0,59.0,29.89,ESE,114,2.0,3.0,90,0.00,,,0.03,,2013-05-10 00:32:00,
2013-05-09 20:42:00,62.0,59.0,29.90,SE,146,2.0,4.0,91,0.00,,,0.03,,2013-05-10 00:42:00,
2013-05-09 20:52:00,62.0,59.0,29.90,SE,146,2.0,4.0,91,0.00,,,0.03,,2013-05-10 00:52:00,
2013-05-09 21:01:00,62.0,59.0,29.90,SE,144,3.0,6.0,91,0.00,,,0.03,,2013-05-10 01:01:00,
2013-05-09 21:11:00,62.0,59.0,29.90,SE,144,3.0,6.0,91,0.00,,,0.03,,2013-05-10 01:11:00,
2013-05-09 21:22:00,62.0,60.0,29.90,SW,227,0.0,3.0,92,0.00,,,0.03,,2013-05-10 01:22:00,
2013-05-09 21:32:00,62.0,60.0,29.89,ESE,120,0.0,1.0,92,0.00,,,0.03,,2013-05-10 01:32:00,
2013-05-09 21:42:00,62.0,60.0,29.89,SE,125,0.0,1.0,92,0.00,,,0.03,,2013-05-10 01:42:00,
2013-05-09 21:52:00,62.0,60.0,29.89,SE,125,0.0,1.0,92,0.00,,,0.03,,2013-05-10 01:52:00,
2013-05-09 22:02:00,61.0,59.0,29.88,SE,125,0.0,0.0,92,0.00,,,0.03,,2013-05-10 02:02:00,
2013-05-09 22:11:00,61.0,59.0,29.88,SE,125,0.0,0.0,92,0.00,,,0.03,,2013-05-10 02:11:00,
2013-05-09 22:21:00,61.0,59.0,29.88,SE,125,0.0,1.0,93,0.00,,,0.03,,2013-05-10 02:21:00,
2013-05-09 22:32:00,61.0,59.0,29.88,SE,125,0.0,0.0,94,0.00,,,0.03,,2013-05-10 02:32:00,
2013-05-09 22:42:00,61.0,60.0,29.88,ESE,122,0.0,1.0,95,0.00,,,0.03,,2013-05-10 02:42:00,
2013-05-09 22:52:00,61.0,60.0,29.88,ESE,122,0.0,1.0,95,0.00,,,0.03,,2013-05-10 02:52:00,
2013-05-09 23:01:00,61.0,60.0,29.88,ESE,123,0.0,0.0,95,0.00,,,0.03,,2013-05-10 03:01:00,
2013-05-09 23:11:00,61.0,60.0,29.88,ESE,123,0.0,0.0,95,0.00,,,0.03,,2013-05-10 03:11:00,
2013-05-09 23:22:00,60.0,59.0,29.87,ESE,123,0.0,0.0,95,0.00,,,0.03,,2013-05-10 03:22:00,
2013-05-09 23:33:00,61.0,60.0,29.87,SSE,155,0.0,0.0,95,0.00,,,0.03,,2013-05-10 03:33:00,
2013-05-09 23:43:00,61.0,60.0,29.87,SSE,155,0.0,0.0,95,0.00,,,0.03,,2013-05-10 03:43:00,
2013-05-09 23:53:00,60.0,59.0,29.87,ENE,64,0.0,3.0,96,0.00,,,0.03,,2013-05-10 03:53:00,